TimeEDT,TemperatureF,Dew PointF,Humidity,Sea Level PressureIn,VisibilityMPH,Wind Direction,Wind SpeedMPH,Gust SpeedMPH,PrecipitationIn,Events,Conditions,WindDirDegrees,DateUTC
12:15 AM,56.1,29.5,36,30.13,10.0,South,5.8,-,N/A,,Overcast,170,2013-03-10 05:15:00
12:35 AM,55.8,28.6,35,30.13,10.0,SSE,4.6,-,N/A,,Overcast,160,2013-03-10 05:35:00
12:55 AM,54.7,29.1,38,30.11,10.0,SE,4.6,-,N/A,,Mostly Cloudy,140,2013-03-10 05:55:00
1:15 AM,55.4,27.3,34,30.11,10.0,SSE,8.1,-,N/A,,Scattered Clouds,150,2013-03-10 06:15:00
1:35 AM,55.9,27.0,33,30.11,10.0,SSE,9.2,-,N/A,,Clear,150,2013-03-10 06:35:00
1:55 AM,55.6,27.3,34,30.10,10.0,SSE,10.4,-,N/A,,Clear,150,2013-03-10 06:55:00
3:15 AM,55.4,27.1,34,30.10,10.0,SSE,8.1,-,N/A,,Clear,150,2013-03-10 07:15:00
3:35 AM,54.9,27.3,35,30.09,10.0,SSE,9.2,-,N/A,,Clear,150,2013-03-10 07:35:00
3:55 AM,54.7,27.7,35,30.08,10.0,SSE,8.1,-,N/A,,Clear,150,2013-03-10 07:55:00
4:15 AM,54.7,27.7,35,30.08,10.0,SSE,5.8,-,N/A,,Clear,160,2013-03-10 08:15:00
4:35 AM,54.0,28.0,37,30.07,10.0,SSE,5.8,-,N/A,,Scattered Clouds,150,2013-03-10 08:35:00
4:55 AM,53.6,27.9,37,30.07,10.0,SSE,8.1,-,N/A,,Overcast,150,2013-03-10 08:55:00
5:15 AM,53.8,28.6,38,30.07,10.0,SSE,4.6,-,N/A,,Overcast,150,2013-03-10 09:15:00
5:35 AM,53.6,28.0,37,30.07,10.0,SSE,5.8,-,N/A,,Scattered Clouds,150,2013-03-10 09:35:00
5:55 AM,52.9,29.1,40,30.07,10.0,SE,5.8,-,N/A,,Mostly Cloudy,140,2013-03-10 09:55:00
6:15 AM,52.3,29.3,41,30.06,10.0,SE,8.1,-,N/A,,Scattered Clouds,130,2013-03-10 10:15:00
6:35 AM,52.5,29.3,41,30.06,10.0,SE,4.6,-,N/A,,Clear,130,2013-03-10 10:35:00
6:55 AM,51.3,28.4,41,30.07,10.0,Calm,Calm,-,N/A,,Clear,0,2013-03-10 10:55:00
7:15 AM,51.1,27.9,41,30.08,10.0,Calm,Calm,-,N/A,,Clear,0,2013-03-10 11:15:00
7:35 AM,52.2,27.5,39,30.09,10.0,South,3.5,-,N/A,,Clear,180,2013-03-10 11:35:00
8:35 AM,50.9,28.4,42,30.10,10.0,Calm,Calm,-,N/A,,Clear,0,2013-03-10 12:35:00
8:55 AM,52.0,30.7,44,30.11,10.0,Calm,Calm,-,N/A,,Clear,0,2013-03-10 12:55:00
9:15 AM,54.5,31.8,42,30.11,10.0,ESE,3.5,-,N/A,,Clear,120,2013-03-10 13:15:00
9:35 AM,54.1,32.9,45,30.11,10.0,ESE,3.5,-,N/A,,Clear,120,2013-03-10 13:35:00
9:55 AM,57.2,32.0,38,30.12,10.0,ESE,4.6,-,N/A,,Clear,110,2013-03-10 13:55:00
10:15 AM,59.0,32.2,36,30.12,10.0,ESE,4.6,-,N/A,,Clear,120,2013-03-10 14:15:00
10:35 AM,60.4,31.6,34,30.12,10.0,SSE,5.8,-,N/A,,Clear,150,2013-03-10 14:35:00
10:55 AM,62.1,31.6,32,30.12,10.0,SE,6.9,-,N/A,,Clear,140,2013-03-10 14:55:00
11:15 AM,62.8,31.3,31,30.11,10.0,SE,9.2,-,N/A,,Clear,140,2013-03-10 15:15:00
11:35 AM,63.9,30.4,28,30.10,10.0,SSE,8.1,-,N/A,,Clear,150,2013-03-10 15:35:00
11:55 AM,65.5,30.6,27,30.10,10.0,SSE,8.1,-,N/A,,Clear,150,2013-03-10 15:55:00
12:15 PM,67.6,31.5,26,30.09,10.0,South,6.9,-,N/A,,Clear,180,2013-03-10 16:15:00
12:35 PM,68.4,31.5,25,30.08,10.0,South,6.9,-,N/A,,Clear,190,2013-03-10 16:35:00
12:55 PM,69.1,30.2,24,30.08,10.0,South,4.6,-,N/A,,Clear,170,2013-03-10 16:55:00
1:15 PM,69.3,31.1,24,30.07,10.0,South,6.9,-,N/A,,Clear,190,2013-03-10 17:15:00
1:35 PM,70.9,32.7,24,30.06,10.0,ESE,6.9,-,N/A,,Clear,110,2013-03-10 17:35:00
1:55 PM,70.9,30.7,23,30.05,10.0,South,5.8,-,N/A,,Clear,170,2013-03-10 17:55:00
2:15 PM,72.9,32.2,22,30.04,10.0,South,9.2,-,N/A,,Clear,190,2013-03-10 18:15:00
2:35 PM,73.2,31.8,22,30.03,10.0,South,9.2,-,N/A,,Clear,190,2013-03-10 18:35:00
2:55 PM,73.9,32.5,22,30.02,10.0,South,8.1,-,N/A,,Clear,170,2013-03-10 18:55:00
3:15 PM,73.8,31.8,21,30.01,10.0,South,9.2,-,N/A,,Clear,180,2013-03-10 19:15:00
3:35 PM,73.6,31.8,22,30.02,10.0,South,5.8,-,N/A,,Clear,180,2013-03-10 19:35:00
3:55 PM,74.3,32.0,21,30.01,10.0,SSW,6.9,-,N/A,,Clear,210,2013-03-10 19:55:00
4:15 PM,75.6,32.0,20,29.99,10.0,SSE,8.1,-,N/A,,Clear,160,2013-03-10 20:15:00
4:35 PM,75.0,32.4,21,29.99,10.0,South,6.9,-,N/A,,Clear,180,2013-03-10 20:35:00
4:55 PM,75.0,32.2,21,29.97,10.0,South,9.2,-,N/A,,Clear,190,2013-03-10 20:55:00
5:15 PM,74.3,32.0,21,29.98,10.0,SSW,10.4,-,N/A,,Clear,200,2013-03-10 21:15:00
5:35 PM,73.9,32.0,21,29.98,10.0,SSW,15.0,23.0,N/A,,Clear,200,2013-03-10 21:35:00
5:55 PM,72.9,32.0,22,29.98,10.0,South,10.4,-,N/A,,Clear,190,2013-03-10 21:55:00
6:15 PM,72.5,32.2,23,29.98,10.0,South,8.1,-,N/A,,Clear,180,2013-03-10 22:15:00
6:35 PM,72.0,32.5,23,29.99,10.0,South,8.1,-,N/A,,Clear,170,2013-03-10 22:35:00
6:55 PM,70.7,32.9,25,29.98,10.0,South,4.6,-,N/A,,Clear,170,2013-03-10 22:55:00
7:15 PM,70.2,33.1,25,29.98,10.0,SSE,6.9,-,N/A,,Clear,160,2013-03-10 23:15:00
7:35 PM,69.1,33.8,27,29.98,10.0,South,8.1,-,N/A,,Clear,180,2013-03-10 23:35:00
7:55 PM,68.9,33.6,27,29.98,10.0,South,6.9,-,N/A,,Clear,170,2013-03-10 23:55:00
8:15 PM,68.2,33.8,28,29.98,10.0,South,9.2,-,N/A,,Clear,190,2013-03-11 00:15:00
8:55 PM,67.5,33.8,29,29.98,10.0,SSE,8.1,-,N/A,,Clear,160,2013-03-11 00:55:00
9:15 PM,66.4,34.0,30,29.97,10.0,SSE,11.5,-,N/A,,Clear,150,2013-03-11 01:15:00
9:35 PM,66.2,33.6,30,29.97,10.0,SSE,11.5,-,N/A,,Clear,160,2013-03-11 01:35:00
10:15 PM,64.8,33.3,31,29.97,10.0,SSE,9.2,16.1,N/A,,Clear,160,2013-03-11 02:15:00
10:35 PM,64.4,32.9,31,29.98,10.0,SSE,11.5,18.4,N/A,,Clear,150,2013-03-11 02:35:00
10:55 PM,64.0,32.4,31,29.97,10.0,SSE,11.5,20.7,N/A,,Clear,160,2013-03-11 02:55:00
11:15 PM,63.5,32.2,31,29.98,10.0,SSE,11.5,20.7,N/A,,Clear,160,2013-03-11 03:15:00
11:35 PM,62.8,32.0,32,29.97,10.0,SSE,16.1,21.9,N/A,,Clear,160,2013-03-11 03:35:00
11:55 PM,62.6,31.8,32,29.97,10.0,SSE,13.8,23.0,N/A,,Clear,160,2013-03-11 03:55:00
12:15 AM,62.1,31.6,32,29.97,10.0,SSE,15.0,23.0,N/A,,Clear,160,2013-03-11 04:15:00
12:35 AM,61.3,31.8,33,29.97,10.0,SSE,11.5,20.7,N/A,,Clear,160,2013-03-11 04:35:00